Location: Follega
(52.8850°N, 5.7362°E)
Time: 10:41:22
(UTC+00:00)

CARTOSAT-1 - Pass Details

Date: 10 October 2020
Orbit: 616 x 619 km, 97.8° (Epoch: 20 October)

Event Time Altitude Azimuth Distance (km) Brightness Sun altitude
Exits shadow 21:48:12 10° 331° (NNW) 1,989 6.8 -40.2°
Drops below altitude 10° 21:48:19 10° 332° (NNW) 2,030 6.9 -40.2°
Sets 21:50:33 0° 340° (NNW) 2,902 7.8 -40.4°
